This is the latest recevied weather packets stored in our database for station/object SQ7IQO. If no packets are shown the sender has not sent any weather packets the latest 10 day(s).
| Time | Temp. | Humidity | Pressure | Rain* | Wind** | Luminosity | Snow |
|---|---|---|---|---|---|---|---|
| 1787388950 | 16.67° C | - | - | 0 mm | 2.24 m/s, ° | - | - |
| 1787388890 | 16.67° C | - | - | 0 mm | 2.24 m/s, ° | - | - |
| 1787388830 | 16.67° C | - | - | 0 mm | 3.58 m/s, ° | - | - |
| 1787388771 | 17.78° C | - | - | 0 mm | 3.13 m/s, ° | - | - |
| 1787388711 | 17.78° C | - | - | 0 mm | 1.34 m/s, ° | - | - |
| 1787388650 | 17.22° C | - | - | 0 mm | 2.68 m/s, ° | - | - |
| 1787388591 | 17.22° C | - | - | 0 mm | 1.79 m/s, ° | - | - |
| 1787388530 | 17.22° C | - | - | 0 mm | 2.24 m/s, ° | - | - |
| 1787388471 | 17.22° C | - | - | 0 mm | 2.68 m/s, ° | - | - |
| 1787388411 | 16.67° C | - | - | 0 mm | 1.34 m/s, ° | - | - |
| 1787388351 | 16.67° C | - | - | 0 mm | 1.34 m/s, ° | - | - |
| 1787388291 | 17.22° C | - | - | 0 mm | 2.68 m/s, ° | - | - |
| 1787388230 | 16.67° C | - | - | 0 mm | 1.79 m/s, ° | - | - |
| 1787388170 | 16.67° C | - | - | 0 mm | 1.34 m/s, ° | - | - |
| 1787388111 | 16.11° C | - | - | 0 mm | 0.89 m/s, ° | - | - |
| 1787388050 | 15.56° C | - | - | 0 mm | 0.89 m/s, ° | - | - |
| 1787387990 | 15.56° C | - | - | 0 mm | 1.34 m/s, ° | - | - |
| 1787387930 | 15.56° C | - | - | 0 mm | 1.34 m/s, ° | - | - |
| 1787387870 | 15.56° C | - | - | 0 mm | 1.34 m/s, ° | - | - |
| 1787387810 | 15° C | - | - | 0 mm | 2.24 m/s, ° | - | - |
| 1787387750 | 15.56° C | - | - | 0 mm | 2.24 m/s, ° | - | - |
| 1787387690 | 15.56° C | - | - | 0 mm | 1.79 m/s, ° | - | - |
| 1787387630 | 15.56° C | - | - | 0 mm | 1.34 m/s, ° | - | - |
| 1787387570 | 15.56° C | - | - | 0 mm | 2.68 m/s, ° | - | - |
| 1787387510 | 15.56° C | - | - | 0 mm | 1.34 m/s, ° | - | - |
* Rain latest hour (hover to see other rain measurements)
** Current wind speed in m/s (hover to see current wind gust speed)